Location: Del Amo
(33.8464°N, 118.2104°W)
Time: 04:03:59
(UTC+00:00)

Vanguard 2 Rocket - Pass Details

Date: 20 September 2024
Orbit: 553 x 3299 km, 32.9° (Epoch: 05 October)

Event Time Altitude Azimuth Distance (km) Brightness Sun altitude
Rises 07:58:34 0° 247° (WSW) 3,569 - -55.2°
Reaches altitude 10° 08:00:40 10° 245° (WSW) 2,852 - -55.1°
Maximum altitude 08:07:43 72° 162° (SSE) 1,575 - -54.9°
Exits shadow 08:16:41 21° 84° (E) 3,801 10.0 -54.6°
Drops below altitude 10° 08:20:38 10° 82° (E) 4,994 10.8 -54.4°
Sets 08:25:31 0° 81° (E) 6,409 11.4 -54.1°
